Home   Weather   Kirchheim unter Teck   Past weeks

Flag for Germany Past Weather in Kirchheim unter Teck, Baden-Württemberg, Germany — Yesterday and Last 2 Weeks

Now
23 °F

Passing clouds.


Feels Like: 16 °F
Forecast: 9 / 22 °F
Wind: 6 mph from Northeast

Location: Stuttgart-Echterdingen

Current Time: Jan 19, 2017 at 11:49:13 am

Latest Report: Jan 19, 2017 at 11:20 am


Visibility: N/A

Pressure: 30.48 "Hg

Humidity: 74%

Dew Point: 16 °F

Location of Kirchheim unter TeckLocation

Past Weather in Kirchheim unter Teck — Graph

°F

Kirchheim unter Teck Temperature Yesterday

Maximum temperature yesterday: 28 °F (at 2:50 pm)
Minimum temperature yesterday: 19 °F (at 11:50 pm)
Average temperature yesterday: 24 °F

High & Low Weather Summary for the Past Weeks

 TemperatureHumidityPressure
High43 °F (Jan 13, 12:20 am)100% (Jan 6, 7:50 am)30.66 "Hg (Jan 6, 7:50 am)
Low7 °F (Jan 7, 2:50 am)59% (Jan 6, 1:20 pm)29.33 "Hg (Jan 13, 12:20 am)
Average28 °F83%30.16 "Hg
* Reported Jan 4 10:20 am — Jan 19 10:50 am, Kirchheim unter Teck, Weather by CustomWeather, © 2017

Note: Actual official high and low records may vary slightly from our data, if they occured in-between our weather recording intervals... More about our weather records

Advertising

Kirchheim unter Teck Weather History for the Previous 24 Hours

Scroll right to see more
 ConditionsComfort  
Time TempWeatherWind HumidityBarometerVisibility
10:50 am
Thu, Jan 19
21 °FPassing clouds.5 mph80%30.48 "HgN/A
10:20 am21 °FPassing clouds.5 mph80%30.48 "HgN/A
9:50 am19 °FSunny.6 mph86%30.48 "Hg10 mi
9:20 am19 °FPassing clouds.5 mph79%30.48 "HgN/A
8:50 am18 °FClear.6 mph86%30.48 "Hg6 mi
8:20 am18 °FClear.6 mph86%30.48 "Hg6 mi
7:50 am18 °FPassing clouds.7 mph86%30.48 "HgN/A
7:20 am18 °FClear.8 mph86%30.48 "Hg10 mi
6:50 am18 °FPassing clouds.7 mph86%30.48 "HgN/A
6:20 am18 °FClear.7 mph86%30.48 "Hg10 mi
5:50 am18 °FClear.7 mph86%30.48 "Hg10 mi
5:20 am18 °FClear.5 mph86%30.48 "Hg10 mi
4:50 am18 °FPassing clouds.5 mph86%30.48 "HgN/A
4:20 am18 °FPassing clouds.2 mph86%30.48 "HgN/A
3:50 am18 °FPassing clouds.2 mph86%30.48 "HgN/A
3:20 am19 °FPassing clouds.5 mph79%30.48 "HgN/A
2:50 am19 °FPassing clouds.9 mph86%30.48 "HgN/A
2:20 am19 °FPassing clouds.8 mph79%30.48 "HgN/A
1:50 am19 °FPassing clouds.7 mph79%30.48 "HgN/A
1:20 am19 °FPassing clouds.7 mph86%30.48 "HgN/A
12:50 am19 °FPassing clouds.8 mph86%30.48 "HgN/A
12:20 am19 °FPassing clouds.6 mph79%30.48 "HgN/A
11:50 pm
Wed, Jan 18
19 °FPassing clouds.7 mph79%30.48 "HgN/A
11:20 pm21 °FPassing clouds.8 mph80%30.48 "HgN/A
10:50 pm21 °FPassing clouds.9 mph80%30.48 "HgN/A
10:20 pm23 °FPassing clouds.10 mph74%30.48 "HgN/A
9:50 pm23 °FPassing clouds.12 mph74%30.48 "HgN/A
9:20 pm23 °FPassing clouds.12 mph80%30.48 "HgN/A
8:50 pm25 °FPassing clouds.12 mph69%30.51 "HgN/A
8:20 pm25 °FPassing clouds.10 mph74%30.51 "HgN/A
7:50 pm25 °FPassing clouds.13 mph74%30.51 "HgN/A
7:20 pm25 °FPassing clouds.10 mph74%30.51 "HgN/A
6:50 pm25 °FPassing clouds.9 mph74%30.51 "HgN/A
6:20 pm23 °FPassing clouds.9 mph74%30.51 "HgN/A
5:50 pm23 °FPassing clouds.10 mph74%30.51 "HgN/A
5:20 pm23 °FPassing clouds.12 mph74%30.51 "HgN/A
4:50 pm25 °FScattered clouds.13 mph69%30.51 "HgN/A
4:20 pm25 °FScattered clouds.10 mph69%30.51 "HgN/A
3:50 pm27 °FScattered clouds.14 mph64%30.51 "HgN/A
3:20 pm28 °FScattered clouds.16 mph64%30.51 "HgN/A
2:50 pm28 °FScattered clouds.13 mph64%30.48 "HgN/A
2:20 pm27 °FScattered clouds.12 mph69%30.51 "HgN/A
1:50 pm27 °FScattered clouds.17 mph64%30.51 "HgN/A
1:20 pm27 °FPartly sunny.17 mph64%30.51 "HgN/A
12:50 pm27 °FPartly sunny.17 mph64%30.51 "HgN/A
12:20 pm27 °FPartly sunny.21 mph64%30.51 "HgN/A
11:50 am27 °FPartly sunny.17 mph69%30.51 "HgN/A
11:20 am27 °FPartly sunny.18 mph64%30.51 "HgN/A
Weather by CustomWeather, © 2017

See weather overviewHow to use our weather pages